TimeCDT,TemperatureF,Dew PointF,Humidity,Sea Level PressureIn,VisibilityMPH,Wind Direction,Wind SpeedMPH,Gust SpeedMPH,PrecipitationIn,Events,Conditions,WindDirDegrees,DateUTC
12:53 AM,81.0,75.0,82,29.95,10.0,WSW,5.8,-,N/A,,Clear,240,2013-07-25 05:53:00
1:53 AM,81.0,75.0,82,29.94,10.0,WSW,6.9,-,N/A,,Partly Cloudy,250,2013-07-25 06:53:00
2:34 AM,80.6,75.2,84,29.95,10.0,West,4.6,-,N/A,,Mostly Cloudy,270,2013-07-25 07:34:00
2:46 AM,80.6,75.2,84,29.95,10.0,West,5.8,-,N/A,,Scattered Clouds,270,2013-07-25 07:46:00
2:53 AM,81.0,75.9,85,29.95,10.0,West,4.6,-,N/A,,Mostly Cloudy,270,2013-07-25 07:53:00
3:53 AM,81.0,75.9,85,29.96,10.0,West,4.6,-,N/A,,Overcast,260,2013-07-25 08:53:00
4:53 AM,80.1,75.9,87,29.96,10.0,NW,3.5,-,N/A,,Mostly Cloudy,310,2013-07-25 09:53:00
5:29 AM,78.8,75.2,89,29.98,1.8,WNW,13.8,18.4,0.12,Rain,Rain,300,2013-07-25 10:29:00
5:46 AM,78.8,73.4,83,29.98,3.0,WNW,6.9,-,0.30,Rain,Light Rain,290,2013-07-25 10:46:00
5:53 AM,78.1,73.9,87,29.98,10.0,WNW,4.6,-,0.30,,Mostly Cloudy,290,2013-07-25 10:53:00
5:55 AM,78.8,73.4,83,29.98,10.0,WNW,4.6,-,N/A,Thunderstorm,Mostly Cloudy,300,2013-07-25 10:55:00
6:26 AM,78.8,75.2,89,29.99,9.0,WNW,3.5,-,N/A,Thunderstorm,Scattered Clouds,300,2013-07-25 11:26:00
6:48 AM,77.0,73.4,89,29.99,10.0,West,6.9,-,N/A,Thunderstorm,Mostly Cloudy,280,2013-07-25 11:48:00
6:53 AM,78.1,75.0,90,30.00,10.0,West,5.8,-,N/A,Thunderstorm,Mostly Cloudy,280,2013-07-25 11:53:00
7:00 AM,78.8,75.2,89,30.00,10.0,West,4.6,-,N/A,Thunderstorm,Mostly Cloudy,280,2013-07-25 12:00:00
7:53 AM,78.1,73.9,87,30.02,10.0,SW,3.5,-,N/A,Thunderstorm,Overcast,220,2013-07-25 12:53:00
8:12 AM,75.2,71.6,89,30.03,4.0,SW,12.7,-,0.04,Rain-Thunderstorm,Heavy Rain,230,2013-07-25 13:12:00
8:53 AM,80.1,75.9,87,30.03,10.0,Calm,Calm,-,0.05,,Scattered Clouds,0,2013-07-25 13:53:00
9:50 AM,82.4,75.2,79,30.03,9.0,WNW,4.6,-,N/A,,Mostly Cloudy,290,2013-07-25 14:50:00
9:53 AM,82.0,75.0,79,30.03,9.0,NW,3.5,-,N/A,,Mostly Cloudy,310,2013-07-25 14:53:00
10:20 AM,82.4,75.2,79,30.04,10.0,Calm,Calm,-,N/A,,Overcast,0,2013-07-25 15:20:00
10:30 AM,82.4,75.2,79,30.04,10.0,Calm,Calm,-,N/A,,Overcast,0,2013-07-25 15:30:00
10:53 AM,84.0,75.0,74,30.05,10.0,North,3.5,-,N/A,,Overcast,10,2013-07-25 15:53:00
11:53 AM,82.9,75.9,79,30.05,10.0,Calm,Calm,-,N/A,,Overcast,0,2013-07-25 16:53:00
12:18 PM,84.2,73.4,70,30.05,10.0,Calm,Calm,-,N/A,,Mostly Cloudy,0,2013-07-25 17:18:00
12:53 PM,87.1,75.9,69,30.04,10.0,NE,6.9,-,N/A,,Partly Cloudy,40,2013-07-25 17:53:00
1:53 PM,89.1,73.9,61,30.03,10.0,NNE,5.8,-,N/A,,Partly Cloudy,30,2013-07-25 18:53:00
2:53 PM,89.1,73.0,59,30.03,10.0,NNE,5.8,-,N/A,,Mostly Cloudy,20,2013-07-25 19:53:00
3:53 PM,91.0,72.0,53,30.01,10.0,NNE,5.8,-,N/A,,Partly Cloudy,20,2013-07-25 20:53:00
4:53 PM,90.0,73.0,57,30.01,10.0,NNW,4.6,-,N/A,,Partly Cloudy,340,2013-07-25 21:53:00
5:53 PM,91.0,72.0,53,30.01,10.0,NE,8.1,-,N/A,,Clear,40,2013-07-25 22:53:00
6:53 PM,89.1,72.0,57,30.00,10.0,Variable,3.5,-,N/A,,Clear,0,2013-07-25 23:53:00
7:53 PM,86.0,73.0,65,30.01,10.0,Calm,Calm,-,N/A,,Clear,0,2013-07-26 00:53:00
8:53 PM,81.0,77.0,88,30.01,10.0,Calm,Calm,-,N/A,,Clear,0,2013-07-26 01:53:00
9:53 PM,80.1,77.0,90,30.03,10.0,Calm,Calm,-,N/A,,Clear,0,2013-07-26 02:53:00
10:53 PM,81.0,75.0,82,30.03,10.0,Calm,Calm,-,N/A,,Clear,0,2013-07-26 03:53:00
11:53 PM,79.0,75.9,90,30.05,10.0,Calm,Calm,-,N/A,,Clear,0,2013-07-26 04:53:00